Weather History for Friday Harbor, WA

Change the Weather History Date:

Saturday, August 24, 2013

  Actual Average Record
Temperature  
Mean Temperature 62 °F -  
Max Temperature 70 °F 69 °F 84 °F (1996)
Min Temperature 53 °F 48 °F 42 °F (2003)
Degree Days  
Heating Degree Days 3    
Growing Degree Days 12 (Base 50)    
Moisture  
Dew Point 54 °F    
Average Humidity 86    
Maximum Humidity 100    
Minimum Humidity 59    
Precipitation  
Precipitation 0.00 in - - ()
Sea Level Pressure  
Sea Level Pressure 29.91 in    
Wind  
Wind Speed 2 mph (SSE)    
Max Wind Speed 9 mph    
Max Gust Speed 20 mph    
Visibility 8 miles    
Events Rain    
Averages and records for this station are not official NWS values.
T = Trace of Precipitation, MM = Missing Value Source: NWS Daily Summary

Daily Weather History Graph

Daily Weather History Graph

Search for Another Location

Airport:

Trip Planner

Search our weather history database for the weather conditions in past years. The results will help you decide how hot, cold, wet, or windy it might be!

Date:

Astronomy

Aug. 24, 2013 Rise Set
Actual Time 6:18 AM PDT 8:08 PM PDT
Civil Twilight 5:45 AM PDT 8:42 PM PDT
Nautical Twilight 5:04 AM PDT 9:23 PM PDT
Astronomical Twilight 4:18 AM PDT 10:08 PM PDT
Moon 9:39 PM PDT (8/24) 10:49 AM PDT (8/24)
Length of Visible Light 14h 57m
Length of Day
13h 50m
Waning Gibbous, 83% of the Moon is Illuminated
Aug 24
Waning Gibbous
Aug 28
Last Quarter
Sep 5
New
Sep 12
First Quarter
Sep 19
Full

Hourly Weather History & Observations

Time (PDT) Temp. Dew Point Humidity Pressure Visibility Wind Dir Wind Speed Gust Speed Precip Events Conditions
12:53 AM 57.0 °F 55.9 °F 96% 29.90 in 10.0 mi Calm Calm - 0.00 in   Overcast
1:53 AM 55.0 °F 54.0 °F 96% 29.90 in 7.0 mi ESE 3.5 mph - 0.00 in Rain Light Rain
2:53 AM 54.0 °F 53.1 °F 97% 29.91 in 10.0 mi Calm Calm - 0.00 in   Overcast
3:53 AM 55.0 °F 54.0 °F 96% 29.91 in 10.0 mi Calm Calm - N/A   Overcast
4:53 AM 55.0 °F 54.0 °F 96% 29.90 in 6.0 mi Calm Calm - 0.00 in Rain Light Rain
5:01 AM 55.4 °F 53.6 °F 94% 29.90 in 5.0 mi Calm Calm - N/A   Overcast
5:09 AM 55.4 °F 53.6 °F 94% 29.90 in 1.8 mi Calm Calm - N/A   Overcast
5:50 AM 55.4 °F 53.6 °F 94% 29.89 in 2.5 mi Calm Calm - N/A   Overcast
5:53 AM 55.0 °F 54.0 °F 96% 29.89 in 3.0 mi Calm Calm - N/A   Overcast
6:01 AM 55.4 °F 53.6 °F 94% 29.89 in 2.0 mi Calm Calm - N/A   Overcast
6:08 AM 55.4 °F 53.6 °F 94% 29.89 in 1.0 mi Calm Calm - N/A   Overcast
6:25 AM 55.4 °F 53.6 °F 94% 29.89 in 3.0 mi Calm Calm - N/A   Overcast
6:36 AM 55.4 °F 55.4 °F 100% 29.90 in 8.0 mi Calm Calm - N/A   Overcast
6:53 AM 55.9 °F 55.0 °F 97% 29.90 in 6.0 mi Calm Calm - N/A   Overcast
7:53 AM 55.9 °F 55.0 °F 97% 29.91 in 5.0 mi Calm Calm - N/A   Overcast
8:27 AM 55.4 °F 55.4 °F 100% 29.91 in 5.0 mi Calm Calm - N/A   Overcast
8:53 AM 57.0 °F 55.9 °F 96% 29.92 in 7.0 mi Calm Calm - N/A   Overcast
9:53 AM 57.9 °F 55.9 °F 93% 29.91 in 10.0 mi East 4.6 mph - N/A   Overcast
10:50 AM 59.0 °F 55.4 °F 88% 29.92 in 10.0 mi ESE 4.6 mph - N/A   Overcast
10:53 AM 59.0 °F 55.9 °F 90% 29.92 in 10.0 mi ESE 4.6 mph - N/A   Overcast
11:27 AM 60.8 °F 57.2 °F 88% 29.93 in 10.0 mi ESE 5.8 mph - N/A   Overcast
11:35 AM 60.8 °F 57.2 °F 88% 29.92 in 10.0 mi ESE 4.6 mph - N/A   Overcast
11:53 AM 62.1 °F 57.0 °F 84% 29.92 in 10.0 mi ESE 5.8 mph - N/A   Overcast
12:53 PM 60.1 °F 54.0 °F 80% 29.91 in 10.0 mi ESE 4.6 mph - N/A   Mostly Cloudy
1:53 PM 69.1 °F 55.9 °F 63% 29.92 in 10.0 mi SE 9.2 mph - N/A   Clear
2:53 PM 70.0 °F 55.0 °F 59% 29.91 in 10.0 mi SE 9.2 mph - N/A   Clear
3:53 PM 66.9 °F 53.1 °F 61% 29.91 in 10.0 mi SSW 9.2 mph - N/A   Clear
4:53 PM 63.0 °F 53.1 °F 70% 29.91 in 10.0 mi SW 9.2 mph - N/A   Clear
5:53 PM 64.9 °F 51.1 °F 61% 29.90 in 10.0 mi SW 9.2 mph 19.6 mph N/A   Clear
6:53 PM 62.1 °F 52.0 °F 70% 29.89 in 10.0 mi SW 6.9 mph - N/A   Scattered Clouds
7:53 PM 60.1 °F 51.1 °F 72% 29.90 in 10.0 mi WSW 3.5 mph - N/A   Overcast
8:53 PM 60.1 °F 50.0 °F 69% 29.91 in 10.0 mi WSW 4.6 mph - N/A   Overcast
9:53 PM 59.0 °F 50.0 °F 72% 29.91 in 10.0 mi WSW 3.5 mph - N/A   Overcast
10:53 PM 57.9 °F 48.9 °F 72% 29.92 in 10.0 mi Calm Calm - N/A   Partly Cloudy
11:53 PM 53.1 °F 48.9 °F 86% 29.93 in 10.0 mi Calm Calm - N/A   Partly Cloudy